Regional Weather Roundup
Issued by NWS

Home | Current Version | Previous Version | Graphics & Text | Print | Product List | Glossary On
Versions: 1 2 3 4 5 6 7 8 9 10 11 12 13 14 15 16 17 18 19 20 21 22 23 24 25 26 27 28 29 30 31 32 33 34 35 36 37 38 39 40 41 42 43 44 45 46 47 48 49 50
000
ASUS43 KIND 021159
RWRIN

WEATHER ROUNDUP FOR INDIANA
NATIONAL WEATHER SERVICE INDIANAPOLIS IN
800 AM EDT WED SEP 02 2015

NOTE: "FAIR" INDICATES FEW OR NO CLOUDS BELOW 12,000 FEET WITH NO
SIGNIFICANT WEATHER AND/OR OBSTRUCTIONS TO VISIBILITY.

* - STATION DOES NOT REPORT WEATHER SUCH AS PRECIPITATION OR FOG.

+ - STATION NOT QUALITY CONTROLLED BY THE NATIONAL WEATHER SERVICE.
    USE DATA WITH CAUTION...ESPECIALLY DEWPOINT AND RELATIVE
    HUMIDITY OBSERVATIONS.

INZ001>003-010>013-019-020-021300-
NORTHWEST INDIANA

CITY           SKY/WX    TMP DP  RH WIND       PRES   REMARKS
GARY /AIRPORT/ PTCLDY    73  68  83 S7        30.07R
KNOX *+        CLEAR     66  66 100 S6        30.08S
MONTICELLO +   CLEAR     69  69 100 CALM      30.09R
6HR MIN TEMP:  69; 6HR MAX TEMP:  71;

RENSSELAER +   CLEAR     68  68 100 S5        30.10R FOG

$$

LMZ046-743>745-021300-
SOUTHERN LAKE MICHIGAN

STATION/POSITION TIME  TEMP    WIND        PRES    WAVE
                       AIR SEA DIR/SP/G            HT
                 (UTC) (F)     (DEG/KT/KT) (MB)    (FT)
BURNS HARBOR     1100   72     190/  9/ 11 1017.9R
MICHIGAN CITY    1100   73     180/  8/ 10   N/A
5NW MICH CITY    1100   73 72  220/  8/ 10   N/A     1

$$

INZ004-005-014>016-021>024-021300-
NORTH CENTRAL INDIANA

CITY           SKY/WX    TMP DP  RH WIND       PRES   REMARKS
GOSHEN         PTCLDY    69  67  93 SW5       30.09R FOG
6HR MIN TEMP:  68; 6HR MAX TEMP:  71;

SOUTH BEND     MOCLDY    70  67  90 SW5       30.09R
6HR MIN TEMP:  69; 6HR MAX TEMP:  72;

WARSAW +       CLEAR     68  68 100 CALM      30.10R FOG

$$

INZ006>009-017-018-025>027-021300-
NORTHEAST INDIANA

CITY           SKY/WX    TMP DP  RH WIND       PRES   REMARKS
FORT WAYNE     PTCLDY    68  66  93 SW5       30.11R
6HR MIN TEMP:  66; 6HR MAX TEMP:  70;


$$

INZ028-029-035-036-043>045-051>053-021300-
WEST CENTRAL INDIANA

CITY           SKY/WX    TMP DP  RH WIND       PRES   REMARKS
CRAWFORDSVL +  CLEAR     63  63 100 CALM      30.13R FOG
6HR MIN TEMP:  61; 6HR MAX TEMP:  65;

GREENCASTLE +    N/A     64  61  88 CALM      30.14R FOG
LAFAYETTE      CLEAR     67  66  97 CALM      30.10R FOG
6HR MIN TEMP:  66; 6HR MAX TEMP:  69;

TERRE HAUTE    CLEAR     64  63  96 CALM      30.13R FOG
6HR MIN TEMP:  63; 6HR MAX TEMP:  67;


$$

INZ030>032-037>040-046>048-054>057-064-065-021300-
CENTRAL INDIANA

CITY           SKY/WX    TMP DP  RH WIND       PRES   REMARKS
COLUMBUS       CLEAR     64  63  94 CALM      30.14R FOG
FRANKFORT +    CLEAR    N/A N/A N/A CALM      30.14R HAZE
GREENWOOD *+   CLEAR     68  64  88 CALM      30.14R
INDIANAPOLIS   NOT AVBL
-EAGLE CREEK   PTCLDY    69  67  93 CALM      30.12R FOG
6HR MIN TEMP:  66; 6HR MAX TEMP:  70;

KOKOMO *+      PTCLDY    70  64  83 SW6       30.12R
6HR MIN TEMP:  66; 6HR MAX TEMP:  72;

MT COMFORT *+    N/A     68 N/A N/A CALM      30.14R
SHELBYVILLE    FOG       67  64  90 S3        30.13R VSB 1/2
6HR MIN TEMP:  65; 6HR MAX TEMP:  68;


$$

INZ033-034-041-042-049-050-058-059-021300-
EAST CENTRAL INDIANA

CITY           SKY/WX    TMP DP  RH WIND       PRES   REMARKS
MUNCIE         CLEAR     70  67  90 SW7       30.13R
6HR MIN TEMP:  69; 6HR MAX TEMP:  71;


$$

INZ060-061-067>069-081>083-085>088-021300-
SOUTHWEST INDIANA

CITY           SKY/WX    TMP DP  RH WIND       PRES   REMARKS
EVANSVILLE     CLEAR     69  67  93 CALM      30.13R FOG
6HR MIN TEMP:  68; 6HR MAX TEMP:  73;

HUNTINGBURG *+ MOCLDY    66  64  94 CALM      30.13S
6HR MIN TEMP:  64; 6HR MAX TEMP:  70;


$$

INZ062-063-066-070>080-084-089>092-021300-
SOUTH CENTRAL AND SOUTHEAST INDIANA

CITY           SKY/WX    TMP DP  RH WIND       PRES   REMARKS
BLOOMINGTON    CLEAR     66  64  93 CALM      30.14R FOG
6HR MIN TEMP:  64; 6HR MAX TEMP:  69;

MADISON *+       N/A     64  64 100 CALM      30.16R VSB 1/4
SEYMOUR +      MOCLDY    66  66 100 CALM      30.14R FOG

$$



USA.gov is the U.S. government's official web portal to all federal, state and local government web resources and services.